577  
ASUS43 KMPX 200910  
RWRMN  
WEATHER ROUNDUP FOR MINNESOTA  
NATIONAL WEATHER SERVICE TWIN CITIES/CHANHASSEN MN  
400 AM CDT SAT JUL 20 2024  
 
NOTE: "FAIR" INDICATES FEW OR NO CLOUDS BELOW 12,000 FEET WITH NO  
SIGNIFICANT WEATHER AND/OR S TO VISIBILITY
. N/A MEANS  
CURRENT SKY AND/OR WEATHER CONDITIONS ARE NOT AVAILABLE.  
 
MNZ060>063-068>070-201000-  
TWIN CITIES METRO  
 
CITY SKY/WX TMP DP RH WIND PRES REMARKS
 
TWIN CITIES CLOUDY 71 62 73 S3 30.07S  
ST PAUL PTCLDY 70 64 81 SE3 30.07S  
CRYSTAL PTCLDY 69 62 78 S3 30.06S  
BLAINE PTCLDY 66 64 94 CALM 30.07S  
LAKEVILLE CLOUDY 66 63 88 CALM 30.09R  
EDEN PRAIRIE CLOUDY 71 62 73 SW3 30.06S  
SOUTH ST PAUL CLOUDY 69 63 83 CALM 30.07S  
LAKE ELMO CLOUDY 64 63 94 CALM 30.09R  

 
MNZ001>005-007-008-013>017-022>024-027-028-201000-  
NORTHWEST MINNESOTA  
 
CITY SKY/WX TMP DP RH WIND PRES REMARKS
 
BEMIDJI CLEAR 60 60 100 CALM 30.07S  
HALLOCK CLEAR 63 63 100 E3 30.02S FOG  
ROSEAU FOG 61 61 100 CALM 30.04F VSB 1/2  
WARROAD CLEAR 64 61 88 CALM 30.04F  
THIEF RVR FALL CLEAR 65 63 93 CALM 30.05S  
CROOKSTON CLEAR 64 61 88 SE7 30.03S  
FOSSTON PTCLDY 63 63 100 S3 30.06F  
DETROIT LAKES CLOUDY 68 66 94 CALM 30.07R  
MOORHEAD PTCLDY 66 63 88 SE5 30.05S  
PARK RAPIDS CLEAR 62 60 93 CALM 30.07R  
MAHNOMEN PTCLDY 66 64 91 S3 30.06S  

 
MNZ006-009>011-018-025>026-201000-  
NORTH CENTRAL MINNESOTA  
 
CITY SKY/WX TMP DP RH WIND PRES REMARKS
 
BAUDETTE FOG 63 60 90 CALM 30.04S VSB 3/4  
FLAG ISLAND CLEAR 70 63 78 CALM 30.03F HAZE  
INTL FALLS CLEAR 57 56 96 CALM 30.03F  
BIG FORK MOCLDY 59 57 94 CALM 30.10F  
LONGVILLE N/A 57 57 100 CALM 30.06S FOG  
GRAND RAPIDS CLEAR 64 61 90 CALM 30.08S  
CRANE LAKE CLEAR 55 54 94 CALM 30.06F  
ORR N/A 57 57 100 CALM 30.04S FOG  
COOK PTCLDY 57 55 94 CALM 30.05S  
WALKER CLEAR 60 60 100 NW3 30.06S  

 
MNZ012-019>021-037-201000-  
NORTHEAST MINNESOTA  
 
CITY SKY/WX TMP DP RH WIND PRES REMARKS
 
DULUTH CLEAR 65 60 84 W7 30.06S  
ELY CLEAR 59 59 100 CALM 30.06S  
HIBBING CLEAR 55 55 100 CALM 30.05F  
EVELETH CLEAR 57 57 99 CALM 30.07S FOG  
DULUTH HARBOR CLOUDY 66 63 88 SW8 30.02S  
TWO HARBORS CLEAR 64 61 88 NW5 30.03S  
GRAND MARAIS N/A 67 58 72 VRB3 29.97F  
G MARAIS ARPRT PTCLDY 66 52 59 NW6 30.03S  

 
MNZ029>031-032-039>041-046>048-054>057-064-201000-  
WEST CENTRAL MINNESOTA  
 
CITY SKY/WX TMP DP RH WIND PRES REMARKS
 
FERGUS FALLS CLOUDY 66 66 100 SE3 30.06S  
WHEATON PTCLDY 63 61 94 SE3 30.07R  
MORRIS CLEAR 61 61 100 E6 30.04S  
ALEXANDRIA CLEAR 63 61 93 SE3 30.09R  
ELBOW LAKE MOCLDY 68 66 93 SE3 30.07R  
WADENA N/A 59 57 94 CALM 30.07R  
GLENWOOD FOG 63 61 94 CALM 30.08S VSB 1/2  
APPLETON CLEAR 63 61 94 CALM 30.06R  
BENSON CLEAR 63 61 94 CALM 30.07S  
ORTONVILLE CLEAR 64 64 100 CALM 30.06R  
MADISON CLEAR 64 64 100 CALM 30.07S FOG  
WILLMAR MOCLDY 63 63 100 CALM 30.06S  

 
MNZ033>034-036-042>043-049>051-058-059-201000-  
CENTRAL MINNESOTA  
 
CITY SKY/WX TMP DP RH WIND PRES REMARKS
 
ST CLOUD CLEAR 61 58 90 CALM 30.07R  
SAUK CENTRE CLEAR 60 60 100 CALM 30.08R  
PAYNESVILLE PTCLDY 59 59 100 CALM 30.08S  
AITKIN CLEAR 55 55 100 CALM 30.06F FOG  
PINE RIVER CLEAR 59 57 94 CALM 30.10S  
BRAINERD FOG 59 57 93 CALM 30.07S VSB 3/4  
STAPLES CLEAR 63 61 94 CALM 30.06F  
LONG PRAIRIE CLEAR 59 59 100 CALM 30.08 FOG  
LITTLE FALLS CLEAR 57 55 94 CALM 30.06S FOG  
CAMP RIPLEY MOCLDY 61 60 97 CALM 30.05R  
LITCHFIELD PTCLDY 63 63 100 CALM 30.07R  
BUFFALO CLOUDY 66 66 100 CALM 30.07S  
MAPLE LAKE MOCLDY 66 62 88 CALM 30.08S  
HUTCHINSON MOCLDY 66 64 91 CALM 30.08S  

 
MNZ037-044-045-052-053-201000-  
EAST CENTRAL MINNESOTA  
 
CITY SKY/WX TMP DP RH WIND PRES REMARKS
 
PRINCETON CLEAR 61 59 94 CALM 30.08S  
MORA CLEAR 59 59 100 CALM 30.11S FOG  
CAMBRIDGE CLEAR 61 57 88 CALM 30.07S  
RUSH CITY MOCLDY 58 56 92 CALM 30.07S  
MOOSE LAKE CLOUDY 59 55 88 CALM 30.07S FOG  
HINCKLEY CLEAR 55 55 100 CALM 30.08R  
CLOQUET CLEAR 64 61 88 W5 30.05S  
MCGREGOR N/A 57 55 94 CALM 30.07S  

 
MNZ071>073-080-081-089-090-097-098-201000-  
SOUTHWEST MINNESOTA  
 
CITY SKY/WX TMP DP RH WIND PRES REMARKS
 
MONTEVIDEO CLEAR 61 61 100 CALM 30.06S FOG  
GRANITE FALLS CLOUDY 68 66 92 S5 30.08R  
CANBY MOCLDY 64 62 96 CALM 30.07S FOG  
MARSHALL PTCLDY 62 N/A N/A S3 30.07S  
REDWOOD FALLS CLOUDY 65 63 93 S5 30.06S  
OLIVIA MOCLDY 66 63 88 SE5 30.06S  
WINDOM MOCLDY 64 63 94 CALM 30.08F  
WORTHINGTON CLOUDY 65 65 100 SW5 30.10S  
TRACY CLOUDY 64 64 100 SW7 30.07S  
SLAYTON CLEAR 60 55 83 CALM 30.11S HAZE  

 
MNZ065>067-074>077-082>085-091>093-201000-  
SOUTH CENTRAL MINNESOTA  
 
CITY SKY/WX TMP DP RH WIND PRES REMARKS
 
MANKATO CLOUDY 67 62 84 S5 30.09R  
NEW ULM CLOUDY 66 63 88 SW3 30.07S  
ST JAMES CLOUDY 66 66 100 S6 30.07S  
FAIRMONT CLOUDY 65 63 93 S8 30.10R  
GLENCOE MOCLDY 67 63 88 CALM 30.07S  
FARIBAULT CLOUDY 70 63 78 CALM 30.09R  
OWATONNA CLOUDY 68 63 83 S3 30.09R  
WASECA CLOUDY 68 61 77 CALM 30.10S  
ALBERT LEA CLOUDY 66 61 82 S5 30.10S  

 
MNZ078>079-086>088-094>096-201000-  
SOUTHEAST MINNESOTA  
 
CITY SKY/WX TMP DP RH WIND PRES REMARKS
 
ROCHESTER CLOUDY 65 60 84 S7 30.10S  
RED WING MOCLDY 66 63 88 CALM 30.07S  
STANTON CLOUDY 66 62 87 S6 30.08S  
DODGE CENTER CLOUDY 66 61 82 CALM 30.11R  
WINONA N/A N/A N/A N/A MISG N/A  
AUSTIN CLOUDY 66 63 88 S6 30.11S  
PRESTON CLOUDY 64 63 94 SW6 30.11R  

 
ABBREVIATIONS USED IN REMARKS  
TC - TEMPERATURES IN CELSIUS  
WCI - WIND CHILL INDEX  
HX - HEAT INDEX  
VSB - VISIBILITY  

 
 
 
CLICK HERE TO GO TO PREVIOUS BULLETINS.

The Nexlab MN Page Main Text Page